• En España
  • Lista de países
  • Para 7 días
  • Temperatura del agua
  • Mapa Satelital
  • El tiempo en el mapa
  • Informadores
  • user-avatar
    Iniciar sesión

    Tiempo cada hora Constantine

    Hoy, 21 Enero, Domingo

    Tiempo Temperatura Precipitaciones Viento Presión Humedad
    00:00 +5°C° 0 mm 3 mps 712 mmHg 90%
    01:00 +5°C° 0 mm 3 mps 712 mmHg 89%
    02:00 +5°C° 0 mm 3 mps 712 mmHg 89%
    03:00 +5°C° 0 mm 3 mps 712 mmHg 88%
    04:00 +5°C° 0 mm 3 mps 711 mmHg 85%
    05:00 +5°C° 0 mm 3 mps 711 mmHg 83%
    06:00 +5°C° 0 mm 3 mps 711 mmHg 80%
    07:00 +8°C° 0 mm 3 mps 712 mmHg 73%
    08:00 +8°C° 0 mm 4 mps 712 mmHg 67%
    09:00 +11°C° 0 mm 4 mps 713 mmHg 61%
    10:00 +12°C° 0 mm 5 mps 713 mmHg 60%
    11:00 +14°C° 0 mm 6 mps 713 mmHg 59%
    12:00 +15°C° 0 mm 8 mps 713 mmHg 58%
    13:00 +15°C° 0 mm 7 mps 713 mmHg 60%
    14:00 +15°C° 0 mm 7 mps 713 mmHg 62%
    15:00 +15°C° 0 mm 6 mps 713 mmHg 63%
    16:00 +13°C° 0 mm 5 mps 713 mmHg 70%
    17:00 +12°C° 0 mm 4 mps 713 mmHg 77%
    18:00 +10°C° 0 mm 3 mps 713 mmHg 84%
    19:00 +10°C° 0 mm 3 mps 713 mmHg 85%
    20:00 +9°C° 0 mm 3 mps 713 mmHg 86%
    21:00 +9°C° 0 mm 3 mps 714 mmHg 87%
    22:00 +9°C° 0 mm 3 mps 714 mmHg 88%
    23:00 +9°C° 0 mm 3 mps 714 mmHg 88%

    Mañana, 22 Enero, Lunes

    Tiempo Temperatura Precipitaciones Viento Presión Humedad
    00:00 +9°C° 0 mm 3 mps 714 mmHg 89%
    01:00 +9°C° 0 mm 3 mps 714 mmHg 89%
    02:00 +8°C° 0 mm 3 mps 714 mmHg 89%
    03:00 +8°C° 0 mm 3 mps 714 mmHg 89%
    04:00 +8°C° 0 mm 3 mps 714 mmHg 89%
    05:00 +8°C° 0 mm 3 mps 714 mmHg 89%
    06:00 +8°C° 0 mm 3 mps 714 mmHg 89%
    07:00 +9°C° 0 mm 3 mps 715 mmHg 83%
    08:00 +11°C° 0 mm 3 mps 715 mmHg 77%
    09:00 +12°C° 0 mm 3 mps 716 mmHg 71%
    10:00 +14°C° 0 mm 3 mps 716 mmHg 66%
    11:00 +15°C° 0 mm 4 mps 716 mmHg 61%
    12:00 +17°C° 0 mm 4 mps 716 mmHg 56%
    13:00 +17°C° 0 mm 4 mps 715 mmHg 55%
    14:00 +17°C° 0 mm 4 mps 715 mmHg 55%
    15:00 +17°C° 0 mm 4 mps 715 mmHg 54%
    16:00 +14°C° 0 mm 4 mps 715 mmHg 61%
    17:00 +13°C° 0 mm 3 mps 715 mmHg 68%
    18:00 +12°C° 0 mm 2 mps 715 mmHg 75%
    19:00 +10°C° 0 mm 2 mps 715 mmHg 77%
    20:00 +10°C° 0 mm 2 mps 715 mmHg 78%
    21:00 +9°C° 0 mm 2 mps 715 mmHg 79%
    22:00 +9°C° 0 mm 2 mps 715 mmHg 80%
    23:00 +9°C° 0 mm 2 mps 715 mmHg 80%

    Pasado mañana, 23 Enero, Martes

    Tiempo Temperatura Precipitaciones Viento Presión Humedad
    00:00 +9°C° 0 mm 2 mps 715 mmHg 80%
    01:00 +8°C° 0 mm 2 mps 715 mmHg 81%
    02:00 +8°C° 0 mm 2 mps 715 mmHg 81%
    03:00 +8°C° 0 mm 2 mps 715 mmHg 81%
    04:00 +9°C° 0 mm 1 mps 715 mmHg 81%
    05:00 +8°C° 0 mm 1 mps 715 mmHg 81%
    06:00 +8°C° 0 mm 1 mps 715 mmHg 82%
    07:00 +10°C° 0 mm 1 mps 715 mmHg 76%
    08:00 +10°C° 0 mm 2 mps 716 mmHg 71%
    09:00 +13°C° 0 mm 2 mps 716 mmHg 66%
    10:00 +14°C° 0 mm 2 mps 716 mmHg 62%
    11:00 +14°C° 0 mm 3 mps 716 mmHg 58%
    12:00 +16°C° 0 mm 3 mps 716 mmHg 54%
    13:00 +16°C° 0 mm 3 mps 716 mmHg 54%
    14:00 +16°C° 0 mm 3 mps 716 mmHg 54%
    15:00 +16°C° 0 mm 3 mps 716 mmHg 54%
    16:00 +14°C° 0 mm 3 mps 716 mmHg 61%
    17:00 +13°C° 0 mm 2 mps 716 mmHg 69%
    18:00 +11°C° 0 mm 1 mps 716 mmHg 77%
    19:00 +11°C° 0 mm 1 mps 716 mmHg 78%
    20:00 +10°C° 0 mm 1 mps 716 mmHg 79%
    21:00 +10°C° 0 mm 1 mps 716 mmHg 80%
    22:00 +9°C° 0 mm 1 mps 716 mmHg 79%
    23:00 +9°C° 0 mm 1 mps 716 mmHg 79%

    24 Enero, Miércoles

    Tiempo Temperatura Precipitaciones Viento Presión Humedad
    00:00 +9°C° 0 mm 1 mps 716 mmHg 78%
    01:00 +9°C° 0 mm 1 mps 716 mmHg 78%
    02:00 +8°C° 0 mm 1 mps 716 mmHg 78%
    03:00 +8°C° 0 mm 1 mps 716 mmHg 79%
    04:00 +8°C° 0 mm 1 mps 716 mmHg 79%
    05:00 +8°C° 0 mm 1 mps 716 mmHg 79%
    06:00 +8°C° 0 mm 1 mps 716 mmHg 79%
    07:00 +9°C° 0 mm 1 mps 717 mmHg 72%
    08:00 +11°C° 0 mm 1 mps 717 mmHg 66%
    09:00 +13°C° 0 mm 1 mps 718 mmHg 60%
    10:00 +14°C° 0 mm 1 mps 717 mmHg 57%
    11:00 +15°C° 0 mm 1 mps 717 mmHg 54%
    12:00 +16°C° 0 mm 1 mps 717 mmHg 50%
    13:00 +16°C° 0 mm 1 mps 717 mmHg 51%
    14:00 +16°C° 0 mm 2 mps 717 mmHg 51%
    15:00 +16°C° 0 mm 2 mps 716 mmHg 52%
    16:00 +15°C° 0 mm 2 mps 716 mmHg 60%
    17:00 +13°C° 0 mm 1 mps 716 mmHg 68%
    18:00 +11°C° 0 mm 1 mps 716 mmHg 76%
    19:00 +11°C° 0 mm 1 mps 716 mmHg 77%
    20:00 +11°C° 0 mm 1 mps 716 mmHg 79%
    21:00 +10°C° 0 mm 1 mps 716 mmHg 80%
    22:00 +10°C° 0 mm 1 mps 716 mmHg 79%
    23:00 +10°C° 0 mm 1 mps 716 mmHg 77%

    25 Enero, Jueves

    Tiempo Temperatura Precipitaciones Viento Presión Humedad
    00:00 +10°C° 0 mm 1 mps 716 mmHg 76%
    01:00 +9°C° 0 mm 2 mps 715 mmHg 75%
    02:00 +8°C° 0 mm 2 mps 715 mmHg 74%
    03:00 +8°C° 0 mm 2 mps 715 mmHg 73%
    04:00 +8°C° 0 mm 2 mps 715 mmHg 74%
    05:00 +8°C° 0 mm 2 mps 715 mmHg 75%
    06:00 +8°C° 0 mm 2 mps 714 mmHg 75%
    07:00 +9°C° 0 mm 2 mps 715 mmHg 70%
    08:00 +12°C° 0 mm 2 mps 715 mmHg 66%
    09:00 +13°C° 0 mm 2 mps 715 mmHg 61%
    10:00 +14°C° 0 mm 3 mps 715 mmHg 55%
    11:00 +17°C° 0 mm 3 mps 715 mmHg 48%
    12:00 +18°C° 0 mm 3 mps 715 mmHg 42%
    13:00 +18°C° 0 mm 3 mps 714 mmHg 42%
    14:00 +18°C° 0 mm 3 mps 714 mmHg 41%
    15:00 +18°C° 0 mm 3 mps 713 mmHg 41%
    16:00 +17°C° 0 mm 2 mps 713 mmHg 48%
    17:00 +15°C° 0 mm 2 mps 712 mmHg 55%
    18:00 +13°C° 0 mm 2 mps 712 mmHg 61%
    19:00 +12°C° 0 mm 2 mps 712 mmHg 63%
    20:00 +12°C° 0 mm 2 mps 712 mmHg 64%
    21:00 +10°C° 0 mm 2 mps 712 mmHg 65%
    22:00 +10°C° 0 mm 2 mps 712 mmHg 66%
    23:00 +9°C° 0 mm 2 mps 712 mmHg 67%

    26 Enero, Viernes

    Tiempo Temperatura Precipitaciones Viento Presión Humedad
    00:00 +9°C° 0 mm 2 mps 711 mmHg 67%
    01:00 +9°C° 0 mm 2 mps 711 mmHg 67%
    02:00 +9°C° 0 mm 2 mps 711 mmHg 68%
    03:00 +8°C° 0 mm 2 mps 710 mmHg 68%
    04:00 +8°C° 0 mm 2 mps 710 mmHg 68%
    05:00 +8°C° 0 mm 2 mps 710 mmHg 68%
    06:00 +8°C° 0 mm 2 mps 710 mmHg 69%
    07:00 +10°C° 0 mm 2 mps 710 mmHg 65%
    08:00 +12°C° 0 mm 2 mps 711 mmHg 61%
    09:00 +14°C° 0 mm 2 mps 711 mmHg 57%
    10:00 +15°C° 0 mm 2 mps 711 mmHg 51%
    11:00 +16°C° 0 mm 2 mps 711 mmHg 46%
    12:00 +18°C° 0 mm 2 mps 711 mmHg 41%
    13:00 +17°C° 0 mm 2 mps 711 mmHg 44%
    14:00 +17°C° 0 mm 3 mps 710 mmHg 46%
    15:00 +17°C° 0 mm 3 mps 710 mmHg 49%
    16:00 +15°C° 0,3 mm 2 mps 710 mmHg 56%
    17:00 +14°C° 0,3 mm 2 mps 710 mmHg 64%
    18:00 +12°C° 0,3 mm 2 mps 710 mmHg 72%
    19:00 +12°C° 0,1 mm 2 mps 711 mmHg 76%
    20:00 +11°C° 0,1 mm 1 mps 711 mmHg 80%
    21:00 +10°C° 0,1 mm 1 mps 711 mmHg 85%
    22:00 +10°C° 0 mm 1 mps 711 mmHg 87%
    23:00 +9°C° 0 mm 1 mps 711 mmHg 89%
    Mostrar más